User: anonymous   Login
Location: Vancouver
(49.2500°N, 123.1330°W)
Time: 13:48:55
(UTC-07:00)
Language:

ISS - Orbit

View from above orbital plane
View from above orbital plane
View from above satellite
View from above satellite

Ground track
Ground track

The orbit data is extracted from the following two-line orbital elements,

1 25544U 98067A   16270.64181344  .00016717  00000-0  10270-3 0  9037
2 25544  51.6390 271.9413 0006583   7.2994 352.8254 15.53961783 20768
Epoch (UTC): 26 September 2016 15:24:12
Eccentricity: 0.0006583
inclination: 51.6390°
perigee height: 401 km
apogee height: 409 km
right ascension of ascending node: 271.9413°
argument of perigee: 7.2994°
revolutions per day: 15.53961783
mean anomaly at epoch: 352.8254°
orbit number at epoch: 2076

The dashed part of the orbit path shows where the satellite is in the earth's shadow,  

DLR